Weather History for KELD - July, 2013

Change the Weather History Date:

Monday, July 8, 2013

  Actual Average Record
Temperature  
Mean Temperature 82 °F 81 °F  
Max Temperature 93 °F 92 °F 105 °F (1964)
Min Temperature 71 °F 71 °F 59 °F (1983)
Degree Days  
Heating Degree Days 0 0  
Month to date heating degree days 0 0  
Since 1 June heating degree days 0 0  
Since 1 July heating degree days 0 0  
Cooling Degree Days 17 16  
Month to date cooling degree days 96 128  
Year to date cooling degree days 788 835  
Since 1 June cooling degree days 510 524  
Growing Degree Days 31 (Base 50)    
Moisture  
Dew Point 72 °F    
Average Humidity 74    
Maximum Humidity 100    
Minimum Humidity 47    
Precipitation  
Precipitation 0.00 in 0.13 in 2.11 in (1963)
Month to date precipitation 0.03 1.11  
Year to date precipitation 21.29 28.99  
Snow  
Snow 0.00 in - - ()
Month to date snowfall 0.0  
Since 1 June snowfall 0.0  
Since 1 July snowfall 0.0  
Snow Depth 0.00 in    
Sea Level Pressure  
Sea Level Pressure 30.11 in    
Wind  
Wind Speed 5 mph (South)    
Max Wind Speed 13 mph    
Max Gust Speed 17 mph    
Visibility 9 miles    
Events      
T = Trace of Precipitation, MM = Missing Value Source: NWS Daily Summary

Daily Weather History Graph

Daily Weather History Graph

Search for Another Location

Airport or City:

Trip Planner

Search our weather history database for the weather conditions in past years. The results will help you decide how hot, cold, wet, or windy it might be!

Date:

Astronomy

Jul. 08, 2013 Rise Set
Actual Time 6:09 AM CDT 8:23 PM CDT
Civil Twilight 5:40 AM CDT 8:51 PM CDT
Nautical Twilight 5:05 AM CDT 9:26 PM CDT
Astronomical Twilight 4:28 AM CDT 10:04 PM CDT
Moon 6:34 AM CDT (7/8) 8:31 PM CDT (7/8)
Length of Visible Light 15h 11m
Length of Day
14h 14m
New Moon, 0% of the Moon is Illuminated
Jul 8
New Moon
Jul 15
First Quarter
Jul 22
Full
Jul 29
Last Quarter
Aug 6
New

Hourly Weather History & Observations

Time (CDT) Temp. Heat Index Dew Point Humidity Pressure Visibility Wind Dir Wind Speed Gust Speed Precip Events Conditions
12:53 AM 75.9 °F - 72.0 °F 87% 30.05 in 10.0 mi SE 3.5 mph - N/A   Clear
1:53 AM 73.9 °F - 72.0 °F 93% 30.04 in 10.0 mi Calm Calm - N/A   Clear
2:53 AM 73.0 °F - 71.1 °F 93% 30.04 in 10.0 mi Calm Calm - N/A   Clear
3:53 AM 73.0 °F - 71.1 °F 93% 30.05 in 10.0 mi Calm Calm - N/A   Clear
4:53 AM 72.0 °F - 71.1 °F 97% 30.09 in 10.0 mi South 3.5 mph - N/A   Clear
5:53 AM 72.0 °F - 71.1 °F 97% 30.11 in 9.0 mi South 3.5 mph - N/A   Overcast
6:20 AM 71.6 °F - 71.6 °F 100% 30.12 in 9.0 mi South 3.5 mph - N/A   Overcast
6:28 AM 71.6 °F - 71.6 °F 100% 30.12 in 8.0 mi South 3.5 mph - N/A   Overcast
6:43 AM 71.6 °F - 71.6 °F 100% 30.12 in 8.0 mi South 3.5 mph - N/A   Overcast
6:53 AM 73.0 °F - 72.0 °F 96% 30.12 in 6.0 mi South 4.6 mph - N/A   Overcast
7:45 AM 73.4 °F - 73.4 °F 100% 30.14 in 2.0 mi SSW 6.9 mph - N/A   Overcast
7:53 AM 73.0 °F - 73.0 °F 100% 30.13 in 3.0 mi SSW 4.6 mph - N/A   Overcast
8:45 AM 75.2 °F - 73.4 °F 94% 30.15 in 10.0 mi South 6.9 mph - N/A   Overcast
8:53 AM 77.0 °F - 73.0 °F 88% 30.14 in 10.0 mi SSW 4.6 mph - N/A   Overcast
9:16 AM 78.8 °F - 73.4 °F 83% 30.15 in 10.0 mi South 4.6 mph - N/A   Overcast
9:27 AM 78.8 °F - 73.4 °F 83% 30.15 in 10.0 mi SW 5.8 mph - N/A   Overcast
9:38 AM 78.8 °F - 73.4 °F 83% 30.15 in 10.0 mi SW 5.8 mph - N/A   Overcast
9:48 AM 80.6 °F 85.4 °F 73.4 °F 79% 30.15 in 10.0 mi Variable 4.6 mph - N/A   Overcast
9:53 AM 79.0 °F - 73.0 °F 82% 30.14 in 10.0 mi SSW 5.8 mph - N/A   Overcast
10:12 AM 82.4 °F 88.2 °F 73.4 °F 74% 30.15 in 10.0 mi South 5.8 mph - N/A   Mostly Cloudy
10:38 AM 84.2 °F 90.9 °F 73.4 °F 70% 30.15 in 10.0 mi SSW 5.8 mph - N/A   Scattered Clouds
10:53 AM 84.9 °F 90.7 °F 72.0 °F 65% 30.14 in 10.0 mi South 5.8 mph - N/A   Partly Cloudy
11:20 AM 84.2 °F 89.6 °F 71.6 °F 66% 30.15 in 10.0 mi SSW 6.9 mph - N/A   Mostly Cloudy
11:35 AM 86.0 °F 91.8 °F 71.6 °F 62% 30.14 in 10.0 mi SSW 6.9 mph - N/A   Scattered Clouds
11:53 AM 88.0 °F 93.8 °F 71.1 °F 57% 30.13 in 10.0 mi SSW 10.4 mph - N/A   Partly Cloudy
12:53 PM 87.1 °F 92.0 °F 70.0 °F 57% 30.12 in 10.0 mi SSW 5.8 mph - N/A   Mostly Cloudy
1:53 PM 91.0 °F 97.6 °F 71.1 °F 52% 30.11 in 10.0 mi South 5.8 mph - N/A   Scattered Clouds
2:53 PM 91.0 °F 96.6 °F 70.0 °F 50% 30.09 in 10.0 mi SSW 10.4 mph - N/A   Partly Cloudy
3:53 PM 91.9 °F 97.4 °F 70.0 °F 48% 30.08 in 10.0 mi SSW 9.2 mph - N/A   Scattered Clouds
4:53 PM 91.0 °F 95.2 °F 68.0 °F 47% 30.06 in 10.0 mi SSW 10.4 mph 17.3 mph N/A   Scattered Clouds
5:53 PM 91.9 °F 96.9 °F 69.1 °F 47% 30.05 in 10.0 mi South 8.1 mph - N/A   Clear
6:53 PM 90.0 °F 94.5 °F 69.1 °F 50% 30.05 in 10.0 mi South 6.9 mph - N/A   Clear
7:53 PM 87.1 °F 91.3 °F 69.1 °F 55% 30.06 in 10.0 mi South 4.6 mph - N/A   Partly Cloudy
8:53 PM 82.0 °F 86.3 °F 71.1 °F 69% 30.07 in 10.0 mi South 4.6 mph - N/A   Partly Cloudy
9:53 PM 81.0 °F 84.9 °F 71.1 °F 72% 30.09 in 10.0 mi South 4.6 mph - N/A   Clear
10:53 PM 80.1 °F 83.6 °F 71.1 °F 74% 30.09 in 10.0 mi South 3.5 mph - N/A   Clear
11:53 PM 75.9 °F - 72.0 °F 87% 30.09 in 10.0 mi South 3.5 mph - N/A   Clear